﻿_id,日時,平均風速(m/s),平均風向,最大瞬間風速(m/s),最大風速時風向,気温(℃),湿度(%),10分間移動積算雨量(mm),1時間移動積算雨量(mm),日雨量(mm),累計雨量(mm),日射(日積算)(MJ/m2),日照(日積算)(min),現地気圧(hPa),海面気圧(hPa)
1,2023-08-21T00:00:00,1.2,西北西,2.3,西,27.9,87.6,0,0,0,0,21.85,582,1000.4,1013.6
2,2023-08-21T00:01:00,1.1,西北西,2.3,西,27.9,87.1,0,0,0,0,0,0,1000.4,1013.6
3,2023-08-21T00:02:00,1,西北西,2.1,西,27.9,86.8,0,0,0,0,0,0,1000.4,1013.6
4,2023-08-21T00:03:00,0.9,西北西,1.6,西北西,27.8,86.3,0,0,0,0,0,0,1000.4,1013.6
5,2023-08-21T00:04:00,0.8,西北西,1.5,西北西,27.7,86.2,0,0,0,0,0,0,1000.4,1013.6
6,2023-08-21T00:05:00,0.8,西北西,1.5,西北西,27.7,86.3,0,0,0,0,0,0,1000.4,1013.6
7,2023-08-21T00:06:00,0.8,西北西,1.5,西北西,27.8,86.6,0,0,0,0,0,0,1000.4,1013.6
8,2023-08-21T00:07:00,0.8,西北西,1.5,西北西,27.8,86.4,0,0,0,0,0,0,1000.4,1013.6
9,2023-08-21T00:08:00,0.8,西北西,1.5,西北西,27.7,86.3,0,0,0,0,0,0,1000.4,1013.6
10,2023-08-21T00:09:00,0.7,西北西,1.5,西北西,27.8,86.4,0,0,0,0,0,0,1000.4,1013.6
11,2023-08-21T00:10:00,0.8,西北西,1.5,西北西,27.8,86.4,0,0,0,0,0,0,1000.4,1013.6
12,2023-08-21T00:11:00,0.8,西北西,1.5,西北西,27.8,86.4,0,0,0,0,0,0,1000.4,1013.6
13,2023-08-21T00:12:00,0.9,西北西,1.9,北西,27.9,86.5,0,0,0,0,0,0,1000.4,1013.6
14,2023-08-21T00:13:00,1,西北西,1.9,北西,27.8,86.1,0,0,0,0,0,0,1000.3,1013.5
15,2023-08-21T00:14:00,1,西北西,1.9,北西,27.9,86.1,0,0,0,0,0,0,1000.3,1013.5
16,2023-08-21T00:15:00,1,北西,1.9,北西,27.8,86,0,0,0,0,0,0,1000.4,1013.6
17,2023-08-21T00:16:00,1,北西,1.9,北西,27.7,85.8,0,0,0,0,0,0,1000.3,1013.5
18,2023-08-21T00:17:00,1,北西,1.9,北西,27.7,86,0,0,0,0,0,0,1000.3,1013.5
19,2023-08-21T00:18:00,1,北西,1.9,北西,27.8,86.3,0,0,0,0,0,0,1000.3,1013.5
20,2023-08-21T00:19:00,1.1,北西,1.9,北西,27.9,86.6,0,0,0,0,0,0,1000.3,1013.5
21,2023-08-21T00:20:00,1.2,西北西,1.9,北西,27.7,86.2,0,0,0,0,0,0,1000.3,1013.5
22,2023-08-21T00:21:00,1.2,西北西,1.9,北西,27.6,85.9,0,0,0,0,0,0,1000.3,1013.5
23,2023-08-21T00:22:00,1,北西,1.8,西北西,27.8,86.6,0,0,0,0,0,0,1000.3,1013.5
24,2023-08-21T00:23:00,0.9,北西,1.7,西北西,27.8,86.6,0,0,0,0,0,0,1000.3,1013.5
25,2023-08-21T00:24:00,0.8,西北西,1.7,西北西,27.6,86.2,0,0,0,0,0,0,1000.3,1013.5
26,2023-08-21T00:25:00,0.8,北西,1.7,西北西,27.6,86.5,0,0,0,0,0,0,1000.3,1013.5
27,2023-08-21T00:26:00,0.7,北西,1.7,西北西,27.7,86.8,0,0,0,0,0,0,1000.2,1013.4
28,2023-08-21T00:27:00,0.6,北西,1.7,西北西,27.6,86.9,0,0,0,0,0,0,1000.2,1013.4
29,2023-08-21T00:28:00,0.5,北西,1.7,西北西,27.7,87.2,0,0,0,0,0,0,1000.2,1013.4
30,2023-08-21T00:29:00,0.4,北西,1.7,西北西,27.8,87.5,0,0,0,0,0,0,1000.2,1013.4
31,2023-08-21T00:30:00,0.3,北西,1.2,西,27.6,86.9,0,0,0,0,0,0,1000.2,1013.4
32,2023-08-21T00:31:00,0.3,北北西,0.8,東南東,27.3,86.4,0,0,0,0,0,0,1000.2,1013.5
33,2023-08-21T00:32:00,0.3,北西,0.8,東南東,27.6,87.2,0,0,0,0,0,0,1000.2,1013.4
34,2023-08-21T00:33:00,0.3,北西,0.8,東南東,27.6,87.4,0,0,0,0,0,0,1000.2,1013.4
35,2023-08-21T00:34:00,0.3,北北東,0.9,南西,27.4,87.1,0,0,0,0,0,0,1000.1,1013.3
36,2023-08-21T00:35:00,0.4,南西,1.9,西南西,27.1,87,0,0,0,0,0,0,1000.1,1013.4
37,2023-08-21T00:36:00,0.4,南南西,1.9,西南西,27,87.2,0,0,0,0,0,0,1000.1,1013.4
38,2023-08-21T00:37:00,0.5,南南西,1.9,西南西,27,87.9,0,0,0,0,0,0,1000.1,1013.4
39,2023-08-21T00:38:00,0.5,南南西,1.9,西南西,27.3,89.2,0,0,0,0,0,0,1000.1,1013.4
40,2023-08-21T00:39:00,0.6,南西,1.9,西南西,27.4,89.2,0,0,0,0,0,0,1000.1,1013.3
41,2023-08-21T00:40:00,0.6,西南西,1.9,西南西,27.5,89,0,0,0,0,0,0,1000.1,1013.3
42,2023-08-21T00:41:00,0.6,西,1.9,西南西,27.5,88.6,0,0,0,0,0,0,1000.1,1013.3
43,2023-08-21T00:42:00,0.6,西,1.9,西南西,27.5,88.3,0,0,0,0,0,0,1000.1,1013.3
44,2023-08-21T00:43:00,0.7,西,1.9,西南西,27.5,88.2,0,0,0,0,0,0,1000.1,1013.3
45,2023-08-21T00:44:00,0.7,西,1.9,西南西,27.5,88.1,0,0,0,0,0,0,1000.1,1013.3
46,2023-08-21T00:45:00,0.7,西,1.6,西,27.5,88,0,0,0,0,0,0,1000.1,1013.3
47,2023-08-21T00:46:00,0.6,西北西,1.5,西,27.6,88.1,0,0,0,0,0,0,1000.1,1013.3
48,2023-08-21T00:47:00,0.5,西北西,1.1,西北西,27.7,88.1,0,0,0,0,0,0,1000.1,1013.3
49,2023-08-21T00:48:00,0.6,西北西,1.2,北,27.7,87.7,0,0,0,0,0,0,1000.1,1013.3
50,2023-08-21T00:49:00,0.5,北西,1.6,北東,27.6,87.2,0,0,0,0,0,0,1000,1013.2
51,2023-08-21T00:50:00,0.6,北西,1.8,北東,27.5,87,0,0,0,0,0,0,1000,1013.2
52,2023-08-21T00:51:00,0.6,北北西,1.8,北東,27.6,87.5,0,0,0,0,0,0,1000,1013.2
53,2023-08-21T00:52:00,0.7,北,1.8,北東,27.8,87.9,0,0,0,0,0,0,1000,1013.2
54,2023-08-21T00:53:00,0.8,北,1.8,北東,27.7,87.5,0,0,0,0,0,0,1000,1013.2
55,2023-08-21T00:54:00,0.9,北北東,2.4,北東,27.8,87.5,0,0,0,0,0,0,1000,1013.2
56,2023-08-21T00:55:00,1,北北東,2.4,北東,27.8,87.5,0,0,0,0,0,0,1000,1013.2
57,2023-08-21T00:56:00,1,北北東,2.4,北東,27.9,87.4,0,0,0,0,0,0,1000,1013.2
58,2023-08-21T00:57:00,1.1,北東,2.4,北東,27.8,86.9,0,0,0,0,0,0,1000,1013.2
59,2023-08-21T00:58:00,1,北東,2.4,北東,27.6,86.5,0,0,0,0,0,0,1000,1013.2
60,2023-08-21T00:59:00,1,北東,2.4,北東,27.8,86.9,0,0,0,0,0,0,1000,1013.2
61,2023-08-21T01:00:00,0.9,北東,2.4,北東,27.8,87,0,0,0,0,0,0,1000,1013.2
62,2023-08-21T01:01:00,0.8,北東,2.4,北東,27.6,86.5,0,0,0,0,0,0,1000,1013.2
63,2023-08-21T01:02:00,0.8,北東,2.4,北東,27.8,87.2,0,0,0,0,0,0,1000,1013.2
64,2023-08-21T01:03:00,0.8,北東,2.4,北東,27.8,87.1,0,0,0,0,0,0,999.9,1013.1
65,2023-08-21T01:04:00,0.7,北東,1.9,北東,27.8,86.8,0,0,0,0,0,0,999.9,1013.1
66,2023-08-21T01:05:00,0.6,北東,1.7,北東,27.7,86.8,0,0,0,0,0,0,999.9,1013.1
67,2023-08-21T01:06:00,0.5,北東,1.7,北東,27.5,86.5,0,0,0,0,0,0,999.9,1013.1
68,2023-08-21T01:07:00,0.5,北東,1.7,北東,27.5,86.9,0,0,0,0,0,0,999.9,1013.1
69,2023-08-21T01:08:00,0.6,北東,1.7,北東,27.5,87.4,0,0,0,0,0,0,999.8,1013
70,2023-08-21T01:09:00,0.6,北東,1.7,北東,27.5,88.1,0,0,0,0,0,0,999.8,1013
71,2023-08-21T01:10:00,0.7,北東,1.7,北東,27.5,88.3,0,0,0,0,0,0,999.8,1013
72,2023-08-21T01:11:00,0.6,北東,1.7,北東,27.4,88.3,0,0,0,0,0,0,999.8,1013
73,2023-08-21T01:12:00,0.6,北東,1.6,北東,27.3,88.5,0,0,0,0,0,0,999.8,1013
74,2023-08-21T01:13:00,0.5,北東,1.4,北東,27.4,89.1,0,0,0,0,0,0,999.8,1013
75,2023-08-21T01:14:00,0.6,北東,1.5,北北東,27.2,89.2,0,0,0,0,0,0,999.8,1013.1
76,2023-08-21T01:15:00,0.6,北東,1.5,北北東,27.3,89.4,0,0,0,0,0,0,999.8,1013
77,2023-08-21T01:16:00,0.5,北東,1.5,北北東,27.4,89.8,0,0,0,0,0,0,999.8,1013
78,2023-08-21T01:17:00,0.5,北東,1.5,北北東,27.4,89.5,0,0,0,0,0,0,999.8,1013
79,2023-08-21T01:18:00,0.5,北北東,1.5,北北東,27.3,88.9,0,0,0,0,0,0,999.8,1013
80,2023-08-21T01:19:00,0.5,北北東,1.5,北北東,27.3,88.9,0,0,0,0,0,0,999.8,1013
81,2023-08-21T01:20:00,0.5,北北東,1.5,北北東,27.4,89,0,0,0,0,0,0,999.8,1013
82,2023-08-21T01:21:00,0.5,北,1.5,北北東,27.4,88.9,0,0,0,0,0,0,999.8,1013
83,2023-08-21T01:22:00,0.5,北,1.5,北北東,27.4,88.9,0,0,0,0,0,0,999.8,1013
84,2023-08-21T01:23:00,0.5,北北西,1.5,北北東,27.4,88.7,0,0,0,0,0,0,999.8,1013
85,2023-08-21T01:24:00,0.4,北北西,1.1,西北西,27.4,88.8,0,0,0,0,0,0,999.8,1013
86,2023-08-21T01:25:00,0.4,北北西,1.1,西北西,27.5,89,0,0,0,0,0,0,999.8,1013
87,2023-08-21T01:26:00,0.4,北北西,1.1,西北西,27.4,88.8,0,0,0,0,0,0,999.7,1012.9
88,2023-08-21T01:27:00,0.4,北北西,1.1,西北西,27.3,88.4,0,0,0,0,0,0,999.7,1012.9
89,2023-08-21T01:28:00,0.4,北北西,1.1,西北西,27.3,88.8,0,0,0,0,0,0,999.7,1012.9
90,2023-08-21T01:29:00,0.3,北北西,0.9,西北西,27.2,89.2,0,0,0,0,0,0,999.7,1013
91,2023-08-21T01:30:00,0.3,北北西,0.8,北,27.2,89.6,0,0,0,0,0,0,999.7,1013
92,2023-08-21T01:31:00,0.3,北北西,0.8,北,27.3,90,0,0,0,0,0,0,999.7,1012.9
93,2023-08-21T01:32:00,0.3,北北西,0.8,北,27.4,90.2,0,0,0,0,0,0,999.7,1012.9
94,2023-08-21T01:33:00,0.3,北北西,0.8,北,27.5,90.2,0,0,0,0,0,0,999.7,1012.9
95,2023-08-21T01:34:00,0.3,北北西,0.8,北,27.5,89.8,0,0,0,0,0,0,999.7,1012.9
96,2023-08-21T01:35:00,0.3,北北西,1.1,西北西,27.6,89.3,0,0,0,0,0,0,999.7,1012.9
97,2023-08-21T01:36:00,0.4,北北西,1.2,北西,27.5,88.9,0,0,0,0,0,0,999.7,1012.9
98,2023-08-21T01:37:00,0.5,北西,1.2,北西,27.5,88.5,0,0,0,0,0,0,999.7,1012.9
99,2023-08-21T01:38:00,0.5,北西,1.3,北西,27.5,88.2,0,0,0,0,0,0,999.7,1012.9
100,2023-08-21T01:39:00,0.5,北西,1.3,北西,27.5,88.2,0,0,0,0,0,0,999.8,1013
101,2023-08-21T01:40:00,0.6,北西,1.3,北西,27.5,88.2,0,0,0,0,0,0,999.7,1012.9
102,2023-08-21T01:41:00,0.6,北西,1.3,北西,27.6,88.1,0,0,0,0,0,0,999.8,1013
103,2023-08-21T01:42:00,0.7,北西,1.3,北西,27.6,88.1,0,0,0,0,0,0,999.8,1013
104,2023-08-21T01:43:00,0.8,西北西,1.3,北西,27.6,87.9,0,0,0,0,0,0,999.8,1013
105,2023-08-21T01:44:00,0.8,西北西,1.4,西,27.6,87.6,0,0,0,0,0,0,999.8,1013
106,2023-08-21T01:45:00,0.9,西北西,1.4,西,27.6,87.6,0,0,0,0,0,0,999.8,1013
107,2023-08-21T01:46:00,0.9,西北西,1.4,西,27.4,87.5,0,0,0,0,0,0,999.8,1013
108,2023-08-21T01:47:00,1,西北西,1.4,西,27.3,87.8,0,0,0,0,0,0,999.8,1013
109,2023-08-21T01:48:00,1.1,西北西,1.4,西,27.4,88.3,0,0,0,0,0,0,999.8,1013
110,2023-08-21T01:49:00,1.1,西北西,1.6,西北西,27.5,88.8,0,0,0,0,0,0,999.8,1013
111,2023-08-21T01:50:00,1.1,西北西,1.7,西,27.5,88.8,0,0,0,0,0,0,999.7,1012.9
112,2023-08-21T01:51:00,1.2,西北西,1.8,西,27.5,88.6,0,0,0,0,0,0,999.7,1012.9
113,2023-08-21T01:52:00,1.3,西,2,西,27.4,88.5,0,0,0,0,0,0,999.7,1012.9
114,2023-08-21T01:53:00,1.4,西,2,西,27.4,88.4,0,0,0,0,0,0,999.7,1012.9
115,2023-08-21T01:54:00,1.4,西,2.1,西,27.1,88.2,0,0,0,0,0,0,999.7,1013
116,2023-08-21T01:55:00,1.5,西,2.2,西,26.8,88,0,0,0,0,0,0,999.7,1013
117,2023-08-21T01:56:00,1.6,西北西,2.2,西,26.8,88.8,0,0,0,0,0,0,999.7,1013
118,2023-08-21T01:57:00,1.6,西,2.2,西,26.6,89.4,0,0,0,0,0,0,999.7,1013
119,2023-08-21T01:58:00,1.7,西,2.2,西,26.8,90.3,0,0,0,0,0,0,999.7,1013
120,2023-08-21T01:59:00,1.7,西,2.2,西,26.8,90.9,0,0,0,0,0,0,999.7,1013
121,2023-08-21T02:00:00,1.7,西,2.2,西,26.8,91.2,0,0,0,0,0,0,999.7,1013
122,2023-08-21T02:01:00,1.7,西,2.2,西,26.7,91.1,0,0,0,0,0,0,999.6,1012.9
123,2023-08-21T02:02:00,1.6,西,2.2,西,26.5,90.8,0,0,0,0,0,0,999.6,1012.9
124,2023-08-21T02:03:00,1.6,西,2.2,西,26.6,91.5,0,0,0,0,0,0,999.6,1012.9
125,2023-08-21T02:04:00,1.6,西,2.3,西,26.5,91.9,0,0,0,0,0,0,999.6,1012.9
126,2023-08-21T02:05:00,1.6,西,2.5,西,26.4,91.7,0,0,0,0,0,0,999.6,1012.9
127,2023-08-21T02:06:00,1.6,西,2.5,西,26.4,92.2,0,0,0,0,0,0,999.6,1012.9
128,2023-08-21T02:07:00,1.6,西,2.5,西,26.4,92.5,0,0,0,0,0,0,999.5,1012.8
129,2023-08-21T02:08:00,1.6,西,2.5,西,26.3,92.5,0,0,0,0,0,0,999.5,1012.8
130,2023-08-21T02:09:00,1.6,西,2.6,西北西,26.4,93,0,0,0,0,0,0,999.5,1012.8
131,2023-08-21T02:10:00,1.7,西,2.6,西北西,26.3,93.1,0,0,0,0,0,0,999.5,1012.8
132,2023-08-21T02:11:00,1.7,西,2.6,西北西,26.2,93.2,0,0,0,0,0,0,999.5,1012.8
133,2023-08-21T02:12:00,1.8,西,2.6,西北西,26.3,93.7,0,0,0,0,0,0,999.5,1012.8
134,2023-08-21T02:13:00,1.8,西,2.6,西北西,26.4,93.8,0,0,0,0,0,0,999.5,1012.8
135,2023-08-21T02:14:00,1.8,西,2.6,西北西,26.4,93.6,0,0,0,0,0,0,999.5,1012.8
136,2023-08-21T02:15:00,1.7,西,2.6,西北西,26.6,94.2,0,0,0,0,0,0,999.6,1012.9
137,2023-08-21T02:16:00,1.7,西,2.6,西北西,26.6,93.9,0,0,0,0,0,0,999.6,1012.9
138,2023-08-21T02:17:00,1.7,西,2.6,西北西,26.7,93.7,0,0,0,0,0,0,999.6,1012.9
139,2023-08-21T02:18:00,1.7,西,2.6,西北西,26.8,93.3,0,0,0,0,0,0,999.6,1012.9
140,2023-08-21T02:19:00,1.6,西,2.4,西北西,26.6,92.4,0,0,0,0,0,0,999.6,1012.9
141,2023-08-21T02:20:00,1.5,西,2.2,西北西,26.8,92.4,0,0,0,0,0,0,999.6,1012.9
142,2023-08-21T02:21:00,1.4,西,2.2,西北西,26.8,92,0,0,0,0,0,0,999.6,1012.9
143,2023-08-21T02:22:00,1.4,西,2.2,西北西,26.7,91.8,0,0,0,0,0,0,999.6,1012.9
144,2023-08-21T02:23:00,1.3,西,1.7,西,26.8,91.3,0,0,0,0,0,0,999.6,1012.9
145,2023-08-21T02:24:00,1.3,西北西,1.7,西,27.1,91.8,0,0,0,0,0,0,999.6,1012.9
146,2023-08-21T02:25:00,1.2,西北西,1.7,西,27,91.1,0,0,0,0,0,0,999.6,1012.9
147,2023-08-21T02:26:00,1.1,西北西,1.7,西,27,90.5,0,0,0,0,0,0,999.5,1012.8
148,2023-08-21T02:27:00,1.1,西北西,1.6,西,27,90.6,0,0,0,0,0,0,999.6,1012.9
149,2023-08-21T02:28:00,0.9,西北西,1.5,西北西,26.8,90.5,0,0,0,0,0,0,999.6,1012.9
150,2023-08-21T02:29:00,0.9,北西,1.5,西北西,26.8,90.5,0,0,0,0,0,0,999.6,1012.9
151,2023-08-21T02:30:00,0.9,北西,1.5,西北西,27,91,0,0,0,0,0,0,999.6,1012.9
152,2023-08-21T02:31:00,0.9,北北西,1.6,北北東,27.2,91.2,0,0,0,0,0,0,999.5,1012.7
153,2023-08-21T02:32:00,0.9,北北西,1.8,北東,27.2,90.7,0,0,0,0,0,0,999.5,1012.7
154,2023-08-21T02:33:00,1,北,1.8,北東,27.3,90.3,0,0,0,0,0,0,999.5,1012.7
155,2023-08-21T02:34:00,1,北,1.8,北東,27.4,89.8,0,0,0,0,0,0,999.4,1012.6
156,2023-08-21T02:35:00,1.1,北,1.9,北北東,27.3,89.2,0,0,0,0,0,0,999.4,1012.6
157,2023-08-21T02:36:00,1.1,北北東,1.9,北北東,27.4,88.9,0,0,0,0,0,0,999.4,1012.6
158,2023-08-21T02:37:00,1.1,北北東,1.9,北北東,27.3,88.7,0,0,0,0,0,0,999.3,1012.5
159,2023-08-21T02:38:00,1.2,北北東,1.9,北北東,27.2,88.3,0,0,0,0,0,0,999.3,1012.5
160,2023-08-21T02:39:00,1.2,北北東,1.9,北北東,27.1,88.4,0,0,0,0,0,0,999.3,1012.6
161,2023-08-21T02:40:00,1.1,北北東,1.9,北北東,27.1,89,0,0,0,0,0,0,999.3,1012.6
162,2023-08-21T02:41:00,1.1,北北東,1.9,北北東,27.1,89.3,0,0,0,0,0,0,999.3,1012.6
163,2023-08-21T02:42:00,1.1,北北東,1.9,北北東,27.1,89.4,0,0,0,0,0,0,999.3,1012.6
164,2023-08-21T02:43:00,1.1,北北東,1.9,北北東,27.3,89.7,0,0,0,0,0,0,999.2,1012.4
165,2023-08-21T02:44:00,1.1,北北東,1.9,北北東,27.2,89.4,0,0,0,0,0,0,999.2,1012.4
166,2023-08-21T02:45:00,1.1,北北東,1.8,北北東,27.3,89.2,0,0,0,0,0,0,999.2,1012.4
167,2023-08-21T02:46:00,1.1,北北東,1.8,北北東,27.3,89.1,0,0,0,0,0,0,999.2,1012.4
168,2023-08-21T02:47:00,1.1,北北東,1.8,北北東,27.5,88.9,0,0,0,0,0,0,999.2,1012.4
169,2023-08-21T02:48:00,1.1,北北東,1.8,北北東,27.4,88.3,0,0,0,0,0,0,999.2,1012.4
170,2023-08-21T02:49:00,1.1,北北東,1.8,北北東,27.4,88.2,0,0,0,0,0,0,999.2,1012.4
171,2023-08-21T02:50:00,1.2,北北東,1.8,北北東,27.2,87.8,0,0,0,0,0,0,999.2,1012.4
172,2023-08-21T02:51:00,1.2,北北東,1.8,北北東,27.2,88.1,0,0,0,0,0,0,999.2,1012.4
173,2023-08-21T02:52:00,1.2,北北東,1.8,北北東,27.1,88.3,0,0,0,0,0,0,999.2,1012.4
174,2023-08-21T02:53:00,1.2,北北東,1.8,北東,27.1,88.4,0,0,0,0,0,0,999.2,1012.4
175,2023-08-21T02:54:00,1.2,北北東,1.8,北東,27.2,88.9,0,0,0,0,0,0,999.2,1012.4
176,2023-08-21T02:55:00,1.2,北北東,1.8,北東,27.1,88.8,0,0,0,0,0,0,999.2,1012.4
177,2023-08-21T02:56:00,1.2,北北東,1.8,北東,27.1,88.6,0,0,0,0,0,0,999.2,1012.4
178,2023-08-21T02:57:00,1.2,北北東,1.8,北東,27.1,88.5,0,0,0,0,0,0,999.2,1012.4
179,2023-08-21T02:58:00,1.1,北北東,1.8,北東,27.2,88.9,0,0,0,0,0,0,999.1,1012.3
180,2023-08-21T02:59:00,1.1,北東,1.8,北東,27.1,88.8,0,0,0,0,0,0,999.1,1012.3
181,2023-08-21T03:00:00,1.1,北東,1.8,北北東,27.1,88.6,0,0,0,0,0,0,999.1,1012.3
182,2023-08-21T03:01:00,1,北東,1.8,北北東,27.1,88.8,0,0,0,0,0,0,999.1,1012.3
183,2023-08-21T03:02:00,1,北東,1.8,北北東,27.1,89,0,0,0,0,0,0,999.1,1012.3
184,2023-08-21T03:03:00,1,北東,1.8,北北東,26.9,89.2,0,0,0,0,0,0,999.1,1012.4
185,2023-08-21T03:04:00,0.9,北東,1.6,北北東,26.7,89.2,0,0,0,0,0,0,999.1,1012.4
186,2023-08-21T03:05:00,0.9,北東,1.4,北東,26.7,89.8,0,0,0,0,0,0,999.1,1012.4
187,2023-08-21T03:06:00,0.9,北東,1.5,北東,26.9,90.5,0,0,0,0,0,0,999.1,1012.4
188,2023-08-21T03:07:00,1,北東,1.8,北東,27.1,90.8,0,0,0,0,0,0,999.1,1012.3
189,2023-08-21T03:08:00,1.1,北東,2,北東,27,90.5,0,0,0,0,0,0,999.1,1012.4
190,2023-08-21T03:09:00,1.1,北東,2,北東,27.2,90.3,0,0,0,0,0,0,999.1,1012.3
191,2023-08-21T03:10:00,1.1,北東,2,北東,27.1,89.8,0,0,0,0,0,0,999.1,1012.3
192,2023-08-21T03:11:00,1.2,北東,2,北東,27.2,89.6,0,0,0,0,0,0,999.1,1012.3
193,2023-08-21T03:12:00,1.3,北東,2.4,北北東,27.1,89.4,0,0,0,0,0,0,999.1,1012.3
194,2023-08-21T03:13:00,1.4,北東,2.4,北北東,27.2,89.4,0,0,0,0,0,0,999.1,1012.3
195,2023-08-21T03:14:00,1.5,北東,2.4,北北東,27.3,89.4,0,0,0,0,0,0,999.1,1012.3
196,2023-08-21T03:15:00,1.6,北東,2.4,北北東,27.3,88.9,0,0,0,0,0,0,999.1,1012.3
197,2023-08-21T03:16:00,1.6,北北東,2.4,北北東,27.3,88.6,0,0,0,0,0,0,999.1,1012.3
198,2023-08-21T03:17:00,1.6,北北東,2.4,北北東,27.4,88.8,0,0,0,0,0,0,999.1,1012.3
199,2023-08-21T03:18:00,1.5,北北東,2.4,北北東,27.4,88.5,0,0,0,0,0,0,999.1,1012.3
200,2023-08-21T03:19:00,1.4,北北東,2.4,北北東,27.3,88.4,0,0,0,0,0,0,999.1,1012.3
201,2023-08-21T03:20:00,1.3,北北東,2.4,北北東,27.1,87.8,0,0,0,0,0,0,999.1,1012.3
202,2023-08-21T03:21:00,1.2,北北東,2.4,北北東,27.1,88.1,0,0,0,0,0,0,999.1,1012.3
203,2023-08-21T03:22:00,1.1,北北東,2.3,北東,27,88.3,0,0,0,0,0,0,999.1,1012.4
204,2023-08-21T03:23:00,1,北北東,2.3,北東,27,88.7,0,0,0,0,0,0,999.1,1012.4
205,2023-08-21T03:24:00,0.9,北北東,2.2,北北東,26.9,88.8,0,0,0,0,0,0,999.1,1012.4
206,2023-08-21T03:25:00,0.7,北北東,2.1,北北東,26.8,89.1,0,0,0,0,0,0,999.1,1012.4
207,2023-08-21T03:26:00,0.6,北北東,1.8,北北東,26.8,89.4,0,0,0,0,0,0,999.1,1012.4
208,2023-08-21T03:27:00,0.5,北北東,1.3,北北東,27,89.8,0,0,0,0,0,0,999.1,1012.4
209,2023-08-21T03:28:00,0.4,北北東,0.9,北北東,27,90.1,0,0,0,0,0,0,999.1,1012.4
210,2023-08-21T03:29:00,0.4,北北東,0.9,北北東,27.1,90,0,0,0,0,0,0,999.1,1012.3
211,2023-08-21T03:30:00,0.4,北北東,1,北東,27,89.8,0,0,0,0,0,0,999.1,1012.4
212,2023-08-21T03:31:00,0.4,北北東,1,北東,27,89.7,0,0,0,0,0,0,999.1,1012.4
213,2023-08-21T03:32:00,0.3,北北東,1,北東,26.8,89.4,0,0,0,0,0,0,999.1,1012.4
214,2023-08-21T03:33:00,0.3,北北東,1,北東,26.6,89.4,0,0,0,0,0,0,999.2,1012.5
215,2023-08-21T03:34:00,0.3,北東,1,北東,26.6,90.1,0,0,0,0,0,0,999.2,1012.5
216,2023-08-21T03:35:00,0.4,北東,1,北東,26.6,90.5,0,0,0,0,0,0,999.2,1012.5
217,2023-08-21T03:36:00,0.3,北東,1,北東,26.7,91,0,0,0,0,0,0,999.3,1012.6
218,2023-08-21T03:37:00,0.3,北東,1,北東,26.7,91.1,0,0,0,0,0,0,999.3,1012.6
219,2023-08-21T03:38:00,0.3,北東,1,北東,26.7,91.2,0,0,0,0,0,0,999.2,1012.5
220,2023-08-21T03:39:00,0.3,東北東,1,北東,26.6,91,0,0,0,0,0,0,999.2,1012.5
221,2023-08-21T03:40:00,0.3,東北東,0.9,東,26.5,91.1,0,0,0,0,0,0,999.2,1012.5
222,2023-08-21T03:41:00,0.3,東北東,0.9,東,26.5,91.2,0,0,0,0,0,0,999.2,1012.5
223,2023-08-21T03:42:00,0.2,静穏,0.7,東,26.6,91.6,0,0,0,0,0,0,999.2,1012.5
224,2023-08-21T03:43:00,0.2,静穏,0.7,東,26.6,91.8,0,0,0,0,0,0,999.2,1012.5
225,2023-08-21T03:44:00,0.2,静穏,0.7,西北西,26.7,91.8,0,0,0,0,0,0,999.2,1012.5
226,2023-08-21T03:45:00,0.2,静穏,0.7,西北西,26.7,91.9,0,0,0,0,0,0,999.2,1012.5
227,2023-08-21T03:46:00,0.2,静穏,0.7,西北西,26.7,91.7,0,0,0,0,0,0,999.2,1012.5
228,2023-08-21T03:47:00,0.2,静穏,0.8,西北西,26.7,91.5,0,0,0,0,0,0,999.2,1012.5
229,2023-08-21T03:48:00,0.2,静穏,0.8,西北西,26.7,91.5,0,0,0,0,0,0,999.2,1012.5
230,2023-08-21T03:49:00,0.3,北西,1.1,西,26.7,91.4,0,0,0,0,0,0,999.3,1012.6
231,2023-08-21T03:50:00,0.3,西北西,1.1,西,26.6,91.1,0,0,0,0,0,0,999.3,1012.6
232,2023-08-21T03:51:00,0.4,西北西,1.1,西,26.7,91.2,0,0,0,0,0,0,999.3,1012.6
233,2023-08-21T03:52:00,0.4,西北西,1.1,西,26.6,91.1,0,0,0,0,0,0,999.3,1012.6
234,2023-08-21T03:53:00,0.5,西北西,1.1,西,26.5,91.2,0,0,0,0,0,0,999.3,1012.6
235,2023-08-21T03:54:00,0.5,西北西,1.1,西,26.6,91.5,0,0,0,0,0,0,999.3,1012.6
236,2023-08-21T03:55:00,0.5,西北西,1.1,西,26.6,91.5,0,0,0,0,0,0,999.3,1012.6
237,2023-08-21T03:56:00,0.5,西北西,1.1,西,26.7,91.9,0,0,0,0,0,0,999.3,1012.6
238,2023-08-21T03:57:00,0.5,西北西,1.1,西,26.7,92.1,0,0,0,0,0,0,999.3,1012.6
239,2023-08-21T03:58:00,0.5,西北西,1.1,西,26.8,92,0,0,0,0,0,0,999.3,1012.6
240,2023-08-21T03:59:00,0.5,北西,1,西北西,26.8,91.8,0,0,0,0,0,0,999.2,1012.5
241,2023-08-21T04:00:00,0.4,北西,1,西北西,26.8,91.5,0,0,0,0,0,0,999.2,1012.5
242,2023-08-21T04:01:00,0.4,北西,1,西南西,26.8,91.3,0,0,0,0,0,0,999.2,1012.5
243,2023-08-21T04:02:00,0.4,北西,1,西南西,26.7,91,0,0,0,0,0,0,999.2,1012.5
244,2023-08-21T04:03:00,0.4,北西,1,西南西,26.7,90.9,0,0,0,0,0,0,999.2,1012.5
245,2023-08-21T04:04:00,0.4,北西,1,西南西,26.6,90.9,0,0,0,0,0,0,999.2,1012.5
246,2023-08-21T04:05:00,0.4,西北西,1,西南西,26.7,91.2,0,0,0,0,0,0,999.2,1012.5
247,2023-08-21T04:06:00,0.5,西北西,1.1,西,26.6,91.2,0,0,0,0,0,0,999.2,1012.5
248,2023-08-21T04:07:00,0.5,西北西,1.1,西,26.8,91.3,0,0,0,0,0,0,999.2,1012.5
249,2023-08-21T04:08:00,0.5,西北西,1.1,西,26.8,91.4,0,0,0,0,0,0,999.2,1012.5
250,2023-08-21T04:09:00,0.6,西北西,1.2,西,26.8,91.1,0,0,0,0,0,0,999.2,1012.5
251,2023-08-21T04:10:00,0.7,西,1.4,西,26.8,91.1,0,0,0,0,0,0,999.2,1012.5
252,2023-08-21T04:11:00,0.7,西,1.4,西,26.4,90.4,0,0,0,0,0,0,999.2,1012.5
253,2023-08-21T04:12:00,0.8,西,1.5,西,26.6,90.7,0,0,0,0,0,0,999.2,1012.5
254,2023-08-21T04:13:00,0.9,西,1.5,西,26.7,91.4,0,0,0,0,0,0,999.2,1012.5
255,2023-08-21T04:14:00,1,西,1.7,西,26.5,91,0,0,0,0,0,0,999.2,1012.5
256,2023-08-21T04:15:00,1.1,西,1.8,西,26.4,90.8,0,0,0,0,0,0,999.2,1012.5
257,2023-08-21T04:16:00,1.2,西,1.8,西,26.4,91.4,0,0,0,0,0,0,999.2,1012.5
258,2023-08-21T04:17:00,1.2,西,1.8,西,26.4,91.5,0,0,0,0,0,0,999.2,1012.5
259,2023-08-21T04:18:00,1.3,西,1.8,西,26.3,91.4,0,0,0,0,0,0,999.2,1012.5
260,2023-08-21T04:19:00,1.4,西,1.9,西南西,26,91.5,0,0,0,0,0,0,999.3,1012.6
261,2023-08-21T04:20:00,1.4,西,2,西南西,25.8,91.4,0,0,0,0,0,0,999.2,1012.5
262,2023-08-21T04:21:00,1.4,西,2,西南西,25.9,92.2,0,0,0,0,0,0,999.2,1012.5
263,2023-08-21T04:22:00,1.4,西,2,西南西,26.2,93.7,0,0,0,0,0,0,999.2,1012.5
264,2023-08-21T04:23:00,1.4,西,2,西南西,26,93.6,0,0,0,0,0,0,999.3,1012.6
265,2023-08-21T04:24:00,1.4,西,2,西南西,25.9,93.4,0,0,0,0,0,0,999.3,1012.6
266,2023-08-21T04:25:00,1.4,西,2,西南西,26,93.3,0,0,0,0,0,0,999.3,1012.6
267,2023-08-21T04:26:00,1.4,西,2,西南西,26.3,94.2,0,0,0,0,0,0,999.2,1012.5
268,2023-08-21T04:27:00,1.3,西,2,西南西,26.1,94.1,0,0,0,0,0,0,999.3,1012.6
269,2023-08-21T04:28:00,1.2,西,2,西南西,25.7,93.2,0,0,0,0,0,0,999.2,1012.5
270,2023-08-21T04:29:00,1.1,西,2,西南西,25.6,93.1,0,0,0,0,0,0,999.2,1012.5
271,2023-08-21T04:30:00,1,西,1.9,西,25.7,93.6,0,0,0,0,0,0,999.2,1012.5
272,2023-08-21T04:31:00,1,西,1.8,西北西,26.1,94.7,0,0,0,0,0,0,999.3,1012.6
273,2023-08-21T04:32:00,0.9,西,1.7,西北西,26.1,95.1,0,0,0,0,0,0,999.3,1012.6
274,2023-08-21T04:33:00,0.9,西,1.7,西北西,26.2,94.9,0,0,0,0,0,0,999.3,1012.6
275,2023-08-21T04:34:00,0.8,西,1.7,西北西,26.3,94.8,0,0,0,0,0,0,999.3,1012.6
276,2023-08-21T04:35:00,0.8,西,1.7,西北西,26.4,94.5,0,0,0,0,0,0,999.3,1012.6
277,2023-08-21T04:36:00,0.7,西,1.5,西,26.3,93.8,0,0,0,0,0,0,999.3,1012.6
278,2023-08-21T04:37:00,0.6,西北西,1.2,西,26.3,93.5,0,0,0,0,0,0,999.2,1012.5
279,2023-08-21T04:38:00,0.6,西北西,1.2,西,26.5,93.6,0,0,0,0,0,0,999.2,1012.5
280,2023-08-21T04:39:00,0.6,西北西,1.2,西,26.5,93.2,0,0,0,0,0,0,999.2,1012.5
281,2023-08-21T04:40:00,0.5,西北西,1.1,西北西,26.4,92.7,0,0,0,0,0,0,999.2,1012.5
282,2023-08-21T04:41:00,0.5,西北西,1,西北西,26.5,92.5,0,0,0,0,0,0,999.2,1012.5
283,2023-08-21T04:42:00,0.5,西北西,0.9,西北西,26.5,92.4,0,0,0,0,0,0,999.2,1012.5
284,2023-08-21T04:43:00,0.4,西北西,0.9,西北西,26.4,92.2,0,0,0,0,0,0,999.2,1012.5
285,2023-08-21T04:44:00,0.4,西北西,0.9,西北西,26.5,92.2,0,0,0,0,0,0,999.2,1012.5
286,2023-08-21T04:45:00,0.4,西北西,0.8,北西,26.7,92.3,0,0,0,0,0,0,999.2,1012.5
287,2023-08-21T04:46:00,0.4,西北西,0.8,北西,26.6,92,0,0,0,0,0,0,999.2,1012.5
288,2023-08-21T04:47:00,0.4,西北西,0.9,西,26.7,91.8,0,0,0,0,0,0,999.2,1012.5
289,2023-08-21T04:48:00,0.4,西北西,1,西北西,26.6,91.4,0,0,0,0,0,0,999.1,1012.4
290,2023-08-21T04:49:00,0.5,西北西,1.1,西,26.7,91.4,0,0,0,0,0,0,999.2,1012.5
291,2023-08-21T04:50:00,0.6,西北西,1.7,西,26.7,91.4,0,0,0,0,0,0,999.2,1012.5
292,2023-08-21T04:51:00,0.8,西北西,1.8,西,26.5,90.9,0,0,0,0,0,0,999.2,1012.5
293,2023-08-21T04:52:00,0.9,西北西,2.1,西,25.9,89.7,0,0,0,0,0,0,999.2,1012.5
294,2023-08-21T04:53:00,1.1,西北西,2.4,西,25.6,90.2,0,0,0,0,0,0,999.2,1012.5
295,2023-08-21T04:54:00,1.2,西,2.4,西,25.4,91.1,0,0,0,0,0,0,999.2,1012.5
296,2023-08-21T04:55:00,1.3,西,2.4,西,25.3,92.4,0,0,0,0,0,0,999.2,1012.5
297,2023-08-21T04:56:00,1.5,西,2.4,西,25.2,93.5,0,0,0,0,0,0,999.2,1012.5
298,2023-08-21T04:57:00,1.6,西,2.4,西,25.4,94.9,0,0,0,0,0,0,999.2,1012.5
299,2023-08-21T04:58:00,1.7,西,2.5,西,25.4,95.5,0,0,0,0,0,0,999.2,1012.5
300,2023-08-21T04:59:00,1.9,西,2.5,西,25.4,95.7,0,0,0,0,0,0,999.2,1012.5
301,2023-08-21T05:00:00,1.9,西,2.5,西,25.4,95.9,0,0,0,0,0,0,999.2,1012.5
302,2023-08-21T05:01:00,1.9,西,2.5,西,25.4,96.1,0,0,0,0,0,0,999.2,1012.5
303,2023-08-21T05:02:00,1.9,西,2.5,西,25.3,96.1,0,0,0,0,0,0,999.2,1012.5
304,2023-08-21T05:03:00,1.9,西,2.5,西,25.2,96.2,0,0,0,0,0,0,999.2,1012.5
305,2023-08-21T05:04:00,1.9,西,2.5,西,25.2,96.3,0,0,0,0,0,0,999.2,1012.5
306,2023-08-21T05:05:00,1.9,西,2.8,西,25.3,96.5,0,0,0,0,0,0,999.3,1012.6
307,2023-08-21T05:06:00,1.9,西,2.8,西,25.4,96.7,0,0,0,0,0,0,999.3,1012.6
308,2023-08-21T05:07:00,1.9,西,2.8,西,25.3,96.8,0,0,0,0,0,0,999.3,1012.6
309,2023-08-21T05:08:00,1.9,西,2.9,西南西,25.3,96.7,0,0,0,0,0,0,999.3,1012.6
310,2023-08-21T05:09:00,1.9,西,2.9,西南西,25.2,96.7,0,0,0,0,0,0,999.3,1012.6
311,2023-08-21T05:10:00,1.9,西,3.2,西南西,25.2,96.7,0,0,0,0,0,0,999.3,1012.6
312,2023-08-21T05:11:00,1.9,西,3.2,西南西,25.4,96.9,0,0,0,0,0,0,999.3,1012.6
313,2023-08-21T05:12:00,2,西,3.2,西南西,25.3,96.9,0,0,0,0,0,0,999.3,1012.6
314,2023-08-21T05:13:00,2,西,3.2,西南西,25.2,96.8,0,0,0,0,0,0,999.3,1012.6
315,2023-08-21T05:14:00,2,西,3.2,西南西,25.3,96.9,0,0,0,0,0,0,999.3,1012.6
316,2023-08-21T05:15:00,2,西,3.2,西南西,25.4,97.2,0,0,0,0,0,0,999.3,1012.6
317,2023-08-21T05:16:00,2.1,西,3.2,西南西,25.3,97,0,0,0,0,0,0,999.3,1012.6
318,2023-08-21T05:17:00,2.1,西,3.2,西南西,25.2,96.9,0,0,0,0,0,0,999.3,1012.6
319,2023-08-21T05:18:00,2.1,西,3.2,西南西,25.2,96.8,0,0,0,0,0,0,999.3,1012.6
320,2023-08-21T05:19:00,2.1,西,3.2,西南西,25.3,96.8,0,0,0,0,0,0,999.3,1012.6
321,2023-08-21T05:20:00,2.2,西,3.3,西,25.2,97,0,0,0,0,0,0,999.3,1012.6
322,2023-08-21T05:21:00,2.1,西,3.4,西北西,25.2,96.8,0,0,0,0,0,0,999.3,1012.6
323,2023-08-21T05:22:00,2.1,西,3.4,西北西,25.1,96.9,0,0,0,0,0,0,999.2,1012.5
324,2023-08-21T05:23:00,2.1,西,3.4,西北西,25.2,96.9,0,0,0,0,0,0,999.2,1012.5
325,2023-08-21T05:24:00,2.2,西,3.4,西北西,25.3,97.1,0,0,0,0,0,0,999.2,1012.5
326,2023-08-21T05:25:00,2.2,西,3.4,西北西,25.5,97.2,0,0,0,0,0,0,999.2,1012.5
327,2023-08-21T05:26:00,2.3,西,3.4,西北西,25.6,97.3,0,0,0,0,0,0,999.2,1012.5
328,2023-08-21T05:27:00,2.3,西北西,3.4,西北西,25.5,97.1,0,0,0,0,0,0,999.2,1012.5
329,2023-08-21T05:28:00,2.3,西北西,3.4,西北西,25.5,96.9,0,0,0,0,0,0,999.3,1012.6